Location: Bothwell
(42.3833°S, 147.0000°E)
Time: 19:15:36
(UTC+11:00)

UKube-1 - Pass Details

Date: 27 September 2022
Orbit: 606 x 613 km, 98.4° (Epoch: 26 November)

Event Time Altitude Azimuth Distance (km) Brightness Sun altitude
Exits shadow 20:37:15 12° 154° (SSE) 1,877 ? -26.1°
Drops below altitude 10° 20:37:43 10° 159° (SSE) 2,000 ? -26.2°
Sets 20:40:27 0° 177° (S) 2,913 ? -26.6°
